Big Bear City, CA

1:26 AM PDT on September 15, 2019 (GMT -0700)
Big Bear City

Weather History for KL35 - May, 2019

Change the Weather History Date:

Monday, May 20, 2019

  Actual Average (WUND) Record (WUND)
Temperature  
Mean Temperature 36 °F -  
Max Temperature 44 °F - - (-1)
Min Temperature 28 °F - - (-1)
Degree Days  
Heating Degree Days 29    
Moisture  
Dew Point 30 °F    
Average Humidity 81    
Maximum Humidity 100    
Minimum Humidity 61    
Precipitation  
Precipitation 0.05 in - - ()
Sea Level Pressure  
Sea Level Pressure 29.88 in    
Wind  
Wind Speed 7 mph (WSW)    
Max Wind Speed 15 mph    
Max Gust Speed 23 mph    
Visibility 8 miles    
Events Snow    
Averages and records for this station are not official NWS values.
T = Trace of Precipitation, MM = Missing Value Source: NWS Daily Summary

Daily Weather History Graph

Daily Weather History Graph

Search for Another Location

Airport or City:

Astronomy

May. 20, 2019 Rise Set
Actual Time 5:42 AM PDT 7:46 PM PDT
Civil Twilight 5:14 AM PDT 8:14 PM PDT
Nautical Twilight 4:39 AM PDT 8:48 PM PDT
Astronomical Twilight 4:03 AM PDT 9:25 PM PDT
Moon 9:49 PM PDT (5/20) 7:14 AM PDT (5/20)
Length of Visible Light 15h 00m
Length of Day
14h 04m
Waning Gibbous, 96% of the Moon is Illuminated
May 20
Waning Gibbous
May 26
Last Quarter
Jun 3
New
Jun 9
First Quarter
Jun 17
Full

Hourly Weather History & Observations

Time (PDT) Temp. Windchill Dew Point Humidity Pressure Visibility Wind Dir Wind Speed Gust Speed Precip Events Conditions
12:15 AM 32.0 °F 26.4 °F 30.2 °F 93% 29.80 in 1.2 mi WSW 5.8 mph - N/A Snow Light Snow
12:35 AM 32.0 °F 25.6 °F 30.2 °F 93% 29.79 in 2.0 mi WSW 6.9 mph - 0.01 in Snow Light Snow
12:55 AM 32.0 °F 24.8 °F 30.2 °F 93% 29.78 in 2.0 mi WSW 8.1 mph - 0.01 in Snow Light Snow
1:15 AM 32.0 °F 27.5 °F 32.0 °F 100% 29.78 in 1.0 mi WSW 4.6 mph - 0.01 in Snow Snow
1:35 AM 32.0 °F 26.4 °F 30.2 °F 93% 29.78 in 1.0 mi WSW 5.8 mph - 0.03 in Snow Snow
1:55 AM 32.0 °F 26.4 °F 30.2 °F 93% 29.78 in 1.0 mi WSW 5.8 mph - 0.04 in Snow Light Snow
2:15 AM 32.0 °F 27.5 °F 30.2 °F 93% 29.78 in 1.8 mi WSW 4.6 mph - N/A Snow Light Snow
2:35 AM 32.0 °F 27.5 °F 30.2 °F 93% 29.78 in 3.0 mi WSW 4.6 mph - N/A Snow Light Snow
2:55 AM 30.2 °F 25.4 °F 30.2 °F 100% 29.78 in 1.0 mi WSW 4.6 mph - N/A Snow Snow
3:15 AM 30.2 °F 25.4 °F 30.2 °F 100% 29.77 in 1.8 mi SSW 4.6 mph - N/A Snow Light Snow
3:35 AM 30.2 °F 21.9 °F 26.6 °F 86% 29.78 in 3.0 mi WSW 9.2 mph 21.9 mph N/A Snow Light Snow
3:55 AM 28.4 °F 20.4 °F 26.6 °F 93% 29.78 in 1.5 mi WSW 8.1 mph - N/A Snow Light Snow
4:15 AM 28.4 °F 22.2 °F 26.6 °F 93% 29.77 in 5.0 mi SW 5.8 mph - N/A Snow Light Snow
4:35 AM 28.4 °F 21.2 °F 26.6 °F 93% 29.77 in 10.0 mi WSW 6.9 mph - N/A   Scattered Clouds
4:55 AM 30.2 °F 24.3 °F 28.4 °F 93% 29.77 in 4.0 mi WSW 5.8 mph - N/A Snow Light Snow
5:15 AM 30.2 °F 26.7 °F 28.4 °F 93% 29.77 in 7.0 mi WSW 3.5 mph - N/A   Mostly Cloudy
5:35 AM 30.2 °F 21.9 °F 28.4 °F 93% 29.78 in 7.0 mi West 9.2 mph - N/A   Mostly Cloudy
5:55 AM 30.2 °F 24.3 °F 26.6 °F 86% 29.79 in 10.0 mi WSW 5.8 mph - N/A   Overcast
6:15 AM 30.2 °F 25.4 °F 26.6 °F 86% 29.79 in 10.0 mi West 4.6 mph - N/A   Overcast
6:35 AM 30.2 °F - 26.6 °F 86% 29.81 in 10.0 mi Calm Calm - N/A   Overcast
6:55 AM 30.2 °F 25.4 °F 26.6 °F 86% 29.81 in 10.0 mi SW 4.6 mph - N/A   Mostly Cloudy
7:15 AM 30.2 °F - 26.6 °F 86% 29.82 in 10.0 mi Calm Calm - N/A   Mostly Cloudy
7:35 AM 32.0 °F 25.6 °F 26.6 °F 80% 29.83 in 10.0 mi West 6.9 mph - N/A   Overcast
7:55 AM 32.0 °F 28.7 °F 26.6 °F 80% 29.83 in 10.0 mi WSW 3.5 mph - N/A   Mostly Cloudy
8:15 AM 32.0 °F 26.4 °F 26.6 °F 80% 29.83 in 10.0 mi SW 5.8 mph - N/A   Clear
8:35 AM 32.0 °F 26.4 °F 26.6 °F 80% 29.84 in 10.0 mi WSW 5.8 mph - N/A   Clear
8:55 AM 32.0 °F 25.6 °F 26.6 °F 80% 29.84 in 10.0 mi SW 6.9 mph - N/A   Clear
9:15 AM 33.8 °F 25.8 °F 26.6 °F 75% 29.85 in 10.0 mi West 10.4 mph 16.1 mph N/A   Clear
9:35 AM 33.8 °F 24.8 °F 28.4 °F 81% 29.86 in 10.0 mi West 12.7 mph 17.3 mph N/A   Clear
9:55 AM 33.8 °F 27.0 °F 28.4 °F 81% 29.86 in 10.0 mi WSW 8.1 mph - N/A   Clear
10:15 AM 35.6 °F 29.2 °F 28.4 °F 75% 29.86 in 10.0 mi WSW 8.1 mph - N/A   Clear
10:35 AM 35.6 °F 27.5 °F 28.4 °F 75% 29.87 in 10.0 mi West 11.5 mph 16.1 mph N/A   Clear
10:55 AM 37.4 °F 28.5 °F 28.4 °F 70% 29.87 in 10.0 mi West 15.0 mph 18.4 mph N/A   Clear
11:15 AM 37.4 °F 30.8 °F 30.2 °F 75% 29.89 in 10.0 mi WSW 9.2 mph - N/A   Clear
11:35 AM 37.4 °F 31.4 °F 30.2 °F 75% 29.89 in 10.0 mi SW 8.1 mph - N/A   Clear
11:55 AM 39.2 °F 33.0 °F 30.2 °F 70% 29.90 in 10.0 mi WSW 9.2 mph 16.1 mph N/A   Clear
12:15 PM 41.0 °F 39.0 °F 32.0 °F 70% 29.90 in 10.0 mi SW 3.5 mph - N/A   Clear
12:35 PM 41.0 °F 36.4 °F 28.4 °F 61% 29.90 in 10.0 mi WSW 6.9 mph - N/A   Scattered Clouds
12:55 PM 42.8 °F 38.0 °F 30.2 °F 61% 29.91 in 10.0 mi WSW 8.1 mph - N/A   Clear
1:35 PM 44.6 °F 41.4 °F 32.0 °F 61% 29.92 in 10.0 mi WSW 5.8 mph - N/A   Scattered Clouds
1:55 PM 44.6 °F 39.2 °F 32.0 °F 61% 29.92 in 10.0 mi West 10.4 mph - N/A   Clear
2:15 PM 42.8 °F 36.2 °F 32.0 °F 66% 29.92 in 10.0 mi West 12.7 mph 17.3 mph N/A   Clear
2:35 PM 44.6 °F 40.2 °F 32.0 °F 61% 29.92 in 10.0 mi WSW 8.1 mph 19.6 mph N/A   Clear
2:55 PM 44.6 °F 38.8 °F 32.0 °F 61% 29.92 in 10.0 mi West 11.5 mph 18.4 mph N/A   Clear
3:15 PM 44.6 °F 40.2 °F 32.0 °F 61% 29.92 in 10.0 mi WSW 8.1 mph - N/A   Clear
3:35 PM 44.6 °F 39.2 °F 32.0 °F 61% 29.93 in 10.0 mi WSW 10.4 mph 20.7 mph N/A   Clear
3:55 PM 42.8 °F 37.5 °F 30.2 °F 61% 29.93 in 10.0 mi WSW 9.2 mph 17.3 mph N/A   Clear
4:15 PM 42.8 °F 38.6 °F 32.0 °F 66% 29.93 in 10.0 mi WSW 6.9 mph 20.7 mph N/A   Clear
4:35 PM 42.8 °F 36.6 °F 30.2 °F 61% 29.93 in 10.0 mi West 11.5 mph 20.7 mph N/A   Clear
4:55 PM 42.8 °F 37.0 °F 30.2 °F 61% 29.94 in 10.0 mi West 10.4 mph 23.0 mph N/A   Clear
5:15 PM 41.0 °F 33.9 °F 30.2 °F 65% 29.94 in 10.0 mi West 12.7 mph 23.0 mph N/A   Clear
5:35 PM 41.0 °F 34.7 °F 32.0 °F 70% 29.94 in 10.0 mi West 10.4 mph 18.4 mph N/A   Scattered Clouds
5:55 PM 39.2 °F 33.0 °F 32.0 °F 75% 29.94 in 10.0 mi WSW 9.2 mph 17.3 mph N/A   Clear
6:15 PM 39.2 °F 34.2 °F 32.0 °F 75% 29.94 in 10.0 mi SW 6.9 mph 16.1 mph N/A   Clear
6:30 PM 37.4 °F 31.4 °F 32.0 °F 81% 29.94 in 10.0 mi WSW 8.1 mph 16.1 mph N/A   Clear
6:55 PM 35.6 °F 30.7 °F 32.0 °F 87% 29.94 in 10.0 mi WSW 5.8 mph - N/A   Clear
7:15 PM 35.6 °F 29.9 °F 32.0 °F 87% 29.94 in 10.0 mi West 6.9 mph - N/A   Clear
7:35 PM 35.6 °F 29.9 °F 32.0 °F 87% 29.94 in 10.0 mi WSW 6.9 mph - N/A   Scattered Clouds
7:55 PM 35.6 °F 30.7 °F 32.0 °F 87% 29.95 in 10.0 mi WSW 5.8 mph - N/A   Scattered Clouds
8:15 PM 35.6 °F 29.9 °F 32.0 °F 87% 29.95 in 10.0 mi West 6.9 mph - N/A   Clear
8:35 PM 35.6 °F 31.7 °F 30.2 °F 81% 29.95 in 10.0 mi WSW 4.6 mph - N/A   Clear
8:55 PM 35.6 °F 28.6 °F 32.0 °F 87% 29.96 in 10.0 mi West 9.2 mph - N/A   Clear
9:15 PM 33.8 °F 30.8 °F 32.0 °F 93% 29.96 in 10.0 mi SW 3.5 mph - N/A   Scattered Clouds
9:35 PM 33.8 °F 27.7 °F 30.2 °F 87% 29.97 in 10.0 mi WSW 6.9 mph - N/A   Scattered Clouds
9:55 PM 33.8 °F 27.0 °F 30.2 °F 87% 29.98 in 10.0 mi West 8.1 mph - N/A   Clear
10:15 PM 33.8 °F 29.6 °F 30.2 °F 87% 29.98 in 10.0 mi WSW 4.6 mph - N/A   Clear
10:35 PM 33.8 °F 29.6 °F 30.2 °F 87% 29.97 in 10.0 mi West 4.6 mph - N/A   Clear
10:55 PM 33.8 °F 29.6 °F 30.2 °F 87% 29.97 in 10.0 mi WSW 4.6 mph - N/A   Clear
11:15 PM 33.8 °F 28.6 °F 30.2 °F 87% 29.97 in 10.0 mi West 5.8 mph - N/A   Clear
11:35 PM 32.0 °F 28.7 °F 30.2 °F 93% 29.96 in 10.0 mi WSW 3.5 mph - N/A   Clear
11:55 PM 32.0 °F 25.6 °F 28.4 °F 87% 29.95 in 10.0 mi WSW 6.9 mph - N/A   Clear